Location: Ferintosh
(52.7647°N, 112.9692°W)
Time: 15:24:27
(UTC+00:00)

Transit 2A Rocket - Pass Details

Date: 22 May 2024
Orbit: 583 x 910 km, 66.7° (Epoch: 14 June)

Event Time Altitude Azimuth Distance (km) Brightness Sun altitude
Rises 15:16:30 0° 292° (WNW) 3,193 7.7 32.5°
Reaches altitude 10° 15:19:28 10° 309° (NW) 2,333 7.2 32.9°
Maximum altitude 15:23:21 20° 356° (N) 1,828 7.0 33.5°
Drops below altitude 10° 15:27:27 10° 42° (NE) 2,484 8.1 34.1°
Sets 15:30:45 0° 59° (ENE) 3,470 9.0 34.6°
